• In Deutschland
  • Länderverzeichnis
  • Für 7 Tage
  • Wassertemperatur
  • Satellitenkarten
  • Wetterkarte
  • Widgets
  • user-avatar
    Anmelden

    Stündliche Wetter Kreuth

    Heute, 17 Dezember, Sonntag

    Zeit Temperatur Niederschläge Wind Luftdruck Luftfeuchtigkeit
    00:00 -8°C° 0,4 mm 2 m/S 634 mmHg 95%
    01:00 -8°C° 0 mm 2 m/S 634 mmHg 95%
    02:00 -8°C° 0,4 mm 2 m/S 635 mmHg 94%
    03:00 -8°C° 0,4 mm 2 m/S 635 mmHg 94%
    04:00 -8°C° 0,4 mm 2 m/S 635 mmHg 94%
    05:00 -8°C° 0,4 mm 2 m/S 635 mmHg 94%
    06:00 -8°C° 0,4 mm 2 m/S 636 mmHg 94%
    07:00 -8°C° 0,4 mm 2 m/S 636 mmHg 94%
    08:00 -8°C° 0,4 mm 2 m/S 636 mmHg 93%
    09:00 -8°C° 0,4 mm 2 m/S 637 mmHg 92%
    10:00 -7°C° 0,4 mm 2 m/S 637 mmHg 91%
    11:00 -7°C° 0,5 mm 2 m/S 637 mmHg 90%
    12:00 -7°C° 0,5 mm 2 m/S 638 mmHg 89%
    13:00 -8°C° 0,5 mm 3 m/S 638 mmHg 88%
    14:00 -8°C° 0,4 mm 3 m/S 638 mmHg 89%
    15:00 -7°C° 0,4 mm 2 m/S 638 mmHg 90%
    16:00 -8°C° 0,4 mm 2 m/S 638 mmHg 91%
    17:00 -8°C° 0,2 mm 2 m/S 639 mmHg 92%
    18:00 -9°C° 0,2 mm 2 m/S 639 mmHg 92%
    19:00 -9°C° 0,2 mm 2 m/S 639 mmHg 92%
    20:00 -10°C° 0,1 mm 2 m/S 639 mmHg 92%
    21:00 -12°C° 0,1 mm 2 m/S 640 mmHg 91%
    22:00 -12°C° 0,1 mm 2 m/S 640 mmHg 90%
    23:00 -13°C° 0,1 mm 2 m/S 640 mmHg 89%

    Morgen, 18 Dezember, Montag

    Zeit Temperatur Niederschläge Wind Luftdruck Luftfeuchtigkeit
    00:00 -13°C° 0,1 mm 2 m/S 639 mmHg 88%
    01:00 -13°C° 0,1 mm 2 m/S 639 mmHg 87%
    02:00 -14°C° 0 mm 2 m/S 639 mmHg 86%
    03:00 -14°C° 0 mm 2 m/S 639 mmHg 84%
    04:00 -14°C° 0 mm 2 m/S 638 mmHg 83%
    05:00 -14°C° 0 mm 2 m/S 638 mmHg 81%
    06:00 -13°C° 0 mm 2 m/S 638 mmHg 80%
    07:00 -13°C° 0 mm 2 m/S 638 mmHg 78%
    08:00 -12°C° 0 mm 2 m/S 638 mmHg 78%
    09:00 -9°C° 0 mm 1 m/S 638 mmHg 78%
    10:00 -8°C° 0 mm 1 m/S 638 mmHg 78%
    11:00 -7°C° 0,2 mm 1 m/S 638 mmHg 79%
    12:00 -6°C° 0,2 mm 1 m/S 637 mmHg 81%
    13:00 -6°C° 0,2 mm 1 m/S 637 mmHg 82%
    14:00 -6°C° 0,3 mm 1 m/S 637 mmHg 85%
    15:00 -6°C° 0,3 mm 1 m/S 637 mmHg 88%
    16:00 -6°C° 0,3 mm 0 m/S 637 mmHg 92%
    17:00 -6°C° 0,4 mm 0 m/S 638 mmHg 93%
    18:00 -6°C° 0,4 mm 0 m/S 638 mmHg 93%
    19:00 -6°C° 0,4 mm 1 m/S 639 mmHg 94%
    20:00 -6°C° 0,4 mm 1 m/S 639 mmHg 95%
    21:00 -6°C° 0,4 mm 1 m/S 639 mmHg 95%
    22:00 -6°C° 0,4 mm 1 m/S 640 mmHg 96%
    23:00 -6°C° 0,5 mm 1 m/S 640 mmHg 96%

    übermorgen, 19 Dezember, Dienstag

    Zeit Temperatur Niederschläge Wind Luftdruck Luftfeuchtigkeit
    00:00 -6°C° 0,5 mm 1 m/S 641 mmHg 96%
    01:00 -6°C° 0,5 mm 1 m/S 641 mmHg 96%
    02:00 -6°C° 0,5 mm 1 m/S 641 mmHg 96%
    03:00 -6°C° 0,5 mm 1 m/S 641 mmHg 96%
    04:00 -6°C° 0,5 mm 1 m/S 642 mmHg 96%
    05:00 -6°C° 0,5 mm 1 m/S 642 mmHg 96%
    06:00 -6°C° 0,5 mm 1 m/S 642 mmHg 96%
    07:00 -6°C° 0,5 mm 1 m/S 643 mmHg 96%
    08:00 -6°C° 0,4 mm 1 m/S 643 mmHg 96%
    09:00 -4°C° 0,4 mm 1 m/S 643 mmHg 95%
    10:00 -4°C° 0,4 mm 1 m/S 644 mmHg 95%
    11:00 -6°C° 0,4 mm 2 m/S 644 mmHg 94%
    12:00 -5°C° 0,4 mm 2 m/S 644 mmHg 94%
    13:00 -5°C° 0,4 mm 2 m/S 644 mmHg 94%
    14:00 -5°C° 0,2 mm 2 m/S 644 mmHg 94%
    15:00 -5°C° 0,2 mm 2 m/S 644 mmHg 95%
    16:00 -6°C° 0,2 mm 2 m/S 644 mmHg 95%
    17:00 -6°C° 0,1 mm 2 m/S 644 mmHg 95%
    18:00 -7°C° 0,1 mm 2 m/S 644 mmHg 95%
    19:00 -7°C° 0,1 mm 2 m/S 644 mmHg 95%
    20:00 -7°C° 0,7 mm 2 m/S 644 mmHg 95%
    21:00 -7°C° 0,7 mm 2 m/S 644 mmHg 96%
    22:00 -7°C° 0,7 mm 2 m/S 643 mmHg 96%
    23:00 -7°C° 1 mm 2 m/S 643 mmHg 95%

    20 Dezember, Mittwoch

    Zeit Temperatur Niederschläge Wind Luftdruck Luftfeuchtigkeit
    00:00 -7°C° 1 mm 2 m/S 643 mmHg 95%
    01:00 -8°C° 1 mm 3 m/S 643 mmHg 95%
    02:00 -8°C° 1,1 mm 3 m/S 642 mmHg 95%
    03:00 -8°C° 1,1 mm 3 m/S 642 mmHg 95%
    04:00 -8°C° 1,1 mm 3 m/S 642 mmHg 95%
    05:00 -8°C° 1,1 mm 3 m/S 642 mmHg 95%
    06:00 -6°C° 1,1 mm 2 m/S 642 mmHg 96%
    07:00 -6°C° 1,1 mm 2 m/S 642 mmHg 96%
    08:00 -6°C° 0,6 mm 2 m/S 643 mmHg 96%
    09:00 -6°C° 0,6 mm 2 m/S 643 mmHg 96%
    10:00 -5°C° 0,6 mm 2 m/S 643 mmHg 96%
    11:00 -5°C° 0,2 mm 2 m/S 643 mmHg 96%
    12:00 -4°C° 0,2 mm 2 m/S 643 mmHg 96%
    13:00 -4°C° 0,2 mm 2 m/S 644 mmHg 96%
    14:00 -4°C° 0,1 mm 2 m/S 644 mmHg 96%
    15:00 -2°C° 0,1 mm 1 m/S 644 mmHg 96%
    16:00 -3°C° 0,1 mm 1 m/S 644 mmHg 96%
    17:00 -3°C° 0,1 mm 1 m/S 644 mmHg 95%
    18:00 -5°C° 0,1 mm 2 m/S 644 mmHg 94%
    19:00 -5°C° 0,1 mm 2 m/S 644 mmHg 94%
    20:00 -5°C° 0,5 mm 2 m/S 645 mmHg 93%
    21:00 -5°C° 0,5 mm 2 m/S 645 mmHg 93%
    22:00 -5°C° 0,5 mm 2 m/S 645 mmHg 93%
    23:00 -4°C° 1,2 mm 2 m/S 645 mmHg 94%

    21 Dezember, Donnerstag

    Zeit Temperatur Niederschläge Wind Luftdruck Luftfeuchtigkeit
    00:00 -4°C° 1,2 mm 2 m/S 645 mmHg 95%
    01:00 -4°C° 1,2 mm 2 m/S 645 mmHg 96%
    02:00 -3°C° 1,7 mm 2 m/S 645 mmHg 96%
    03:00 -4°C° 1,7 mm 3 m/S 645 mmHg 97%
    04:00 -4°C° 1,7 mm 3 m/S 645 mmHg 97%
    05:00 -4°C° 2 mm 3 m/S 645 mmHg 97%
    06:00 -4°C° 2 mm 3 m/S 645 mmHg 97%
    07:00 -2°C° 2 mm 3 m/S 645 mmHg 98%
    08:00 -2°C° 1,7 mm 3 m/S 645 mmHg 98%
    09:00 -2°C° 1,7 mm 3 m/S 645 mmHg 98%
    10:00 -2°C° 1,7 mm 3 m/S 645 mmHg 98%
    11:00 -2°C° 1,7 mm 3 m/S 645 mmHg 98%
    12:00 -2°C° 1,7 mm 3 m/S 645 mmHg 98%
    13:00 -1°C° 1,7 mm 3 m/S 645 mmHg 99%
    14:00 -2°C° 1,3 mm 3 m/S 645 mmHg 98%
    15:00 -2°C° 1,3 mm 3 m/S 645 mmHg 98%
    16:00 -2°C° 1,3 mm 2 m/S 645 mmHg 98%
    17:00 -2°C° 1 mm 2 m/S 645 mmHg 98%
    18:00 -2°C° 1 mm 2 m/S 645 mmHg 98%
    19:00 -2°C° 1 mm 2 m/S 645 mmHg 97%
    20:00 -2°C° 0,8 mm 3 m/S 645 mmHg 97%
    21:00 -2°C° 0,8 mm 3 m/S 645 mmHg 97%
    22:00 -2°C° 0,8 mm 3 m/S 645 mmHg 97%
    23:00 -2°C° 0,4 mm 2 m/S 644 mmHg 97%

    22 Dezember, Freitag

    Zeit Temperatur Niederschläge Wind Luftdruck Luftfeuchtigkeit
    00:00 -2°C° 0,4 mm 2 m/S 644 mmHg 97%
    01:00 -2°C° 0,4 mm 2 m/S 644 mmHg 96%
    02:00 -2°C° 0,1 mm 2 m/S 643 mmHg 96%
    03:00 -2°C° 0,1 mm 2 m/S 643 mmHg 96%
    04:00 -2°C° 0,1 mm 2 m/S 643 mmHg 96%
    05:00 -2°C° 0,2 mm 2 m/S 642 mmHg 95%
    06:00 -2°C° 0,2 mm 3 m/S 642 mmHg 95%
    07:00 -2°C° 0,2 mm 3 m/S 642 mmHg 95%
    08:00 -2°C° 0,3 mm 3 m/S 642 mmHg 95%
    09:00 -2°C° 0,3 mm 3 m/S 642 mmHg 95%
    10:00 -1°C° 0,3 mm 3 m/S 642 mmHg 95%
    11:00 -2°C° 1 mm 3 m/S 642 mmHg 95%
    12:00 -2°C° 1 mm 3 m/S 642 mmHg 96%
    13:00 -2°C° 1 mm 3 m/S 642 mmHg 96%
    14:00 -2°C° 1 mm 3 m/S 642 mmHg 96%
    15:00 -4°C° 1 mm 3 m/S 643 mmHg 96%
    16:00 -3°C° 1 mm 2 m/S 643 mmHg 95%
    17:00 -4°C° 0,6 mm 2 m/S 644 mmHg 95%
    18:00 -5°C° 0,6 mm 2 m/S 644 mmHg 95%
    19:00 -5°C° 0,6 mm 2 m/S 644 mmHg 95%
    20:00 -5°C° 0,3 mm 2 m/S 644 mmHg 95%
    21:00 -6°C° 0,3 mm 2 m/S 644 mmHg 95%
    22:00 -6°C° 0,3 mm 2 m/S 644 mmHg 95%
    23:00 -7°C° 0,3 mm 3 m/S 644 mmHg 94%
    Mehr zeigen